Voltar ao catálogo

XINZHENGCHENG 02

AtivoMilitarPO
NORAD 68412·PAYLOAD·🇨🇳 China

Lançado Mar 30, 2026 de Jiuquan Satellite Launch Center

Loading…

Próximas Passagens (próximas 24 horas)

TLE

AtualizadoSource: Space-Track

Época: Sep 13, 2026, 20:03 UTC

1 68412U 26066A   26256.83575323  .00000410  00000-0  40818-4 0  9998
2 68412  84.9709 171.3647 0023710 307.3035  52.6027 14.88481931 24918

Acompanhe XINZHENGCHENG 02 em tempo real com AllMySat

Download on the App Store